Location: Ladrillo (historical)
(32.8195°N, 117.2231°W)
Time: 10:22:49
(UTC+00:00)

Vanguard 3 - Pass Details

Date: 28 February 2021
Orbit: 508 x 3262 km, 33.3° (Epoch: 12 April)

Event Time Altitude Azimuth Distance (km) Brightness Sun altitude
Rises 02:01:27 0° 265° (W) 6,849 15.1 -4.3°
Reaches altitude 10° 02:06:32 10° 266° (W) 5,530 13.3 -5.3°
Maximum altitude 02:21:57 88° 357° (N) 1,822 8.9 -8.6°
Enters shadow 02:29:56 12° 87° (E) 3,070 9.4 -10.2°
Drops below altitude 10° 02:30:20 10° 87° (E) 3,195 - -10.3°
Sets 02:32:32 0° 88° (E) 3,896 - -10.8°
